COSMOS 1275 DEB, 12694

Orbit data source: Space-Track

COSMOS 1275 DEB, 12694 is space debris in LEO originally from a launch on Thu, 04 Jun 1981 UTC launched from the Plesetsk Missile And Space Complex (PKMTR). Debris objects in space refer to the collection of defunct objects orbiting the Earth. Examples of debris include non-operational satellites, rocket bodies, and fragments generated from explosions, collisions, or faulty payload assembly.

Loading next visibility...
Identifier
12694, 1981-053AN
Orbit
LEO
Country
Flag of CISCIS
Related business
Manufacturer
Unknown
Mission
Spacecraft
Bus & Motor
Unknown
Mass
Unknown
Launch date (UTC)
1981-06-04 (45 years ago)
Launch vehicle
Unknown
Launch site
Plesetsk Missile And Space Complex (PKMTR)
Object type
Payload
Rocket body
Debris
Shape & HBR
Unknown shape, 0.2 m
Radar Cross Section
Medium (>0.1 m² and <1 m²)

Expand to show TLE details & history
Last TLE update: 2 days ago

TLE from 2 days ago
0 COSMOS 1275 DEB
1 12694U 81053AN  26171.22598176  .00000318  00000-0  37599-3 0  9994
2 12694  83.0811  97.6803 0112155 236.1107 279.1320 13.62411768223384
Epoch: 2026-06-20T05:25Z
TLE epoch observation values (Epoch: 2026-06-20T05:25:24.824Z)
Latitude
25.85704°
Longitude
-75.47089°
Altitude
1,017.789 km
Speed
7.351 km/s
True Right ascension
18h 17m 18s
True Declination
25° 43' 37"
Sunlit
Object was in full shadow at epoch
Visualization orbit readout
Latitude
Unknown
Longitude
Unknown
Altitude
Unknown
Speed
Unknown
Apparent Right ascension
Unknown
Apparent Declination
Unknown
Sunlit
N/A
Visualization observer readout
Local Sidereal Time
06:12:47
Azimuth
Unknown
Elevation
Unknown
Doppler factor
Unknown
Orbital elements
Apogee altitude
1,107.12 km
Perigee altitude
941.081 km
Semi-major axis
7,402.238 km
Eccentricity
0.01122
Inclination
83.0811°
RAAN
97.6803°
Arg. of periapsis
236.1107°
True anomaly
277.86036°
Mean anomaly
279.132°
Eccentric anomaly
278.49645°
Mean motion
3.40799 °/min
Orbital period
105.63 mins
BSTAR
0.00037599
Loading maneuver chart data...
Computing Atmospheric mass density...

Documentation

Showing up to 5 results
|